Location: Eindhoven
(51.4416°N, 5.4697°E)
Time: 01:58:35
(UTC+01:00)

deb Explorer IX - Pass Details

Date: 26 November 2019
Orbit: 545 x 1105 km, 38.8° (Epoch: 05 December)

Event Time Altitude Azimuth Distance (km) Brightness Sun altitude
Rises 02:23:00 0° 257° (WSW) 3,810 - -51.8°
Reaches altitude 10° 02:26:25 10° 244° (WSW) 2,782 - -51.4°
Maximum altitude 02:31:23 22° 196° (SSW) 1,903 - -50.8°
Drops below altitude 10° 02:35:55 10° 147° (SSE) 2,494 - -50.2°
Sets 02:38:48 0° 133° (SE) 3,324 - -49.9°
